Time,TemperatureF,DewpointF,PressureIn,WindDirection,WindDirectionDegrees,WindSpeedMPH,WindSpeedGustMPH,Humidity,HourlyPrecipIn,Conditions,Clouds,dailyrainin,SolarRadiationWatts/m^2,SoftwareType,DateUTC
2013-03-06 00:21:00,26.0,25.0,-100.00,ESE,117,18.0,36.0,96,-99.99,,,-99.99,0.000000,,2013-03-06 08:21:00,
2013-03-06 00:30:00,25.0,24.0,-100.00,ESE,110,17.0,27.0,95,-99.99,,,-99.99,0.000000,,2013-03-06 08:30:00,
2013-03-06 01:21:00,25.0,24.0,-100.00,ESE,110,17.0,27.0,95,-99.99,,,-99.99,0.000000,,2013-03-06 09:21:00,
2013-03-06 01:30:00,24.0,23.0,-100.00,ESE,107,17.0,29.0,95,-99.99,,,-99.99,0.000000,,2013-03-06 09:30:00,
2013-03-06 02:21:00,24.0,23.0,-100.00,ESE,107,17.0,29.0,95,-99.99,,,-99.99,0.000000,,2013-03-06 10:21:00,
2013-03-06 02:30:00,24.0,22.0,-100.00,ESE,113,16.0,32.0,95,-99.99,,,-99.99,0.000000,,2013-03-06 10:30:00,
2013-03-06 03:22:00,24.0,22.0,-100.00,ESE,113,16.0,32.0,95,-99.99,,,-99.99,0.000000,,2013-03-06 11:22:00,
2013-03-06 03:30:00,24.0,23.0,-100.00,ESE,106,18.0,32.0,95,-99.99,,,-99.99,0.000000,,2013-03-06 11:30:00,
2013-03-06 04:21:00,24.0,23.0,-100.00,ESE,106,18.0,32.0,95,-99.99,,,-99.99,0.000000,,2013-03-06 12:21:00,
2013-03-06 04:30:00,23.0,22.0,-100.00,ESE,120,15.0,28.0,95,-99.99,,,-99.99,0.000000,,2013-03-06 12:30:00,
2013-03-06 05:21:00,23.0,22.0,-100.00,ESE,120,15.0,28.0,95,-99.99,,,-99.99,0.000000,,2013-03-06 13:21:00,
2013-03-06 05:30:00,23.0,22.0,-100.00,SE,135,11.0,22.0,95,-99.99,,,-99.99,0.000000,,2013-03-06 13:30:00,
2013-03-06 06:21:00,23.0,22.0,-100.00,SE,135,11.0,22.0,95,-99.99,,,-99.99,0.000000,,2013-03-06 14:21:00,
2013-03-06 06:30:00,23.0,22.0,-100.00,SSE,158,8.0,20.0,95,-99.99,,,-99.99,1.000000,,2013-03-06 14:30:00,
2013-03-06 07:21:00,23.0,22.0,-100.00,SSE,158,8.0,20.0,95,-99.99,,,-99.99,1.000000,,2013-03-06 15:21:00,
2013-03-06 07:30:00,22.0,21.0,-100.00,SSW,200,7.0,18.0,94,-99.99,,,-99.99,21.000000,,2013-03-06 15:30:00,
2013-03-06 08:21:00,22.0,21.0,-100.00,SSW,200,7.0,18.0,94,-99.99,,,-99.99,21.000000,,2013-03-06 16:21:00,
2013-03-06 08:30:00,18.0,17.0,-100.00,SW,221,8.0,19.0,93,-99.99,,,-99.99,50.000000,,2013-03-06 16:30:00,
2013-03-06 09:21:00,18.0,17.0,-100.00,SW,221,8.0,19.0,93,-99.99,,,-99.99,50.000000,,2013-03-06 17:21:00,
2013-03-06 09:30:00,18.0,16.0,-100.00,SW,225,6.0,15.0,92,-99.99,,,-99.99,137.000000,,2013-03-06 17:30:00,
2013-03-06 10:28:00,18.0,16.0,-100.00,SW,225,6.0,15.0,92,-99.99,,,-99.99,137.000000,,2013-03-06 18:28:00,
2013-03-06 10:30:00,18.0,17.0,-100.00,SW,226,5.0,14.0,93,-99.99,,,-99.99,156.000000,,2013-03-06 18:30:00,
2013-03-06 11:21:00,18.0,17.0,-100.00,SW,226,5.0,14.0,93,-99.99,,,-99.99,156.000000,,2013-03-06 19:21:00,
2013-03-06 11:30:00,19.0,17.0,-100.00,SSW,204,6.0,19.0,93,-99.99,,,-99.99,167.000000,,2013-03-06 19:30:00,
2013-03-06 12:30:00,20.0,18.0,-100.00,SSW,193,5.0,13.0,93,-99.99,,,-99.99,237.000000,,2013-03-06 20:30:00,
2013-03-06 13:30:00,20.0,18.0,-100.00,SSW,203,3.0,11.0,93,-99.99,,,-99.99,206.000000,,2013-03-06 21:30:00,
2013-03-06 14:30:00,21.0,20.0,-100.00,SSW,199,3.0,8.0,94,-99.99,,,-99.99,172.000000,,2013-03-06 22:30:00,
2013-03-06 16:30:00,21.0,19.0,-100.00,SSW,193,4.0,9.0,94,-99.99,,,-99.99,38.000000,,2013-03-07 00:30:00,
2013-03-06 17:30:00,21.0,19.0,-100.00,South,176,6.0,14.0,94,-99.99,,,-99.99,21.000000,,2013-03-07 01:30:00,
2013-03-06 18:30:00,20.0,19.0,-100.00,South,171,6.0,10.0,94,-99.99,,,-99.99,0.000000,,2013-03-07 02:30:00,
2013-03-06 20:30:00,20.0,18.0,-100.00,South,172,7.0,14.0,93,-99.99,,,-99.99,0.000000,,2013-03-07 04:30:00,
2013-03-06 21:30:00,20.0,18.0,-100.00,South,171,6.0,10.0,93,-99.99,,,-99.99,0.000000,,2013-03-07 05:30:00,
2013-03-06 22:30:00,20.0,18.0,-100.00,South,174,6.0,10.0,93,-99.99,,,-99.99,0.000000,,2013-03-07 06:30:00,
2013-03-06 23:30:00,20.0,19.0,-100.00,SE,146,7.0,13.0,94,-99.99,,,-99.99,0.000000,,2013-03-07 07:30:00,